A/2019 O4

Japanese version
Home page
Updated on November 3, 2020

---------------------------------------------------------------------

* Profile

Discovery Date July 27, 2019
Magnitude 21.4 mag
Discoverer Pan-STARRS 1 telescope (Haleakala)

* Orbital Elements

Epoch 2020 Feb. 1.0 TT = JDT 2458880.5                                          
T 2020 Feb.  9.91781 TT                                 Rudenko                 
q   3.6444243            (2000.0)            P               Q                  
n   0.00522570     Peri.   61.80391     +0.43753820     -0.89561448             
a  32.8881599      Node   354.91850     -0.69737706     -0.28166362             
e   0.8891873      Incl.  115.08491     +0.56764915     +0.34429683             
P 189              H   15.5                                                     
From 62 observations 2018 Aug. 6-2020 Sept. 14, mean residual 0".4.             

* Magnitudes Graph

        H = 15.5  G = 0.15

---------------------------------------------------------------------

The orbital elements are published on M.P.E.C. 2020-S188.
The magnitudes graphs are made with Comet for Windows.

---------------------------------------------------------------------

Copyright(C) Seiichi Yoshida (comet@aerith.net). All rights reserved.